�������l�o���
Date,Time,MP-1(��Sv/h),MP-2(��Sv/h),MP-3(��Sv/h),MP-4(��Sv/h),MP-5(��Sv/h),MP-6(��Sv/h),MP-7(��Sv/h),MP-8(��Sv/h),����,����(m/s),���J
2019/06/17,00:00,0.736,1.042,0.714,1.302,0.934,0.430,0.741,0.705,���k��,8.7,��
2019/06/17,00:10,0.735,1.045,0.715,1.303,0.938,0.430,0.739,0.704,��,7.5,��
2019/06/17,00:20,0.734,1.044,0.716,1.304,0.937,0.430,0.742,0.705,��,10.0,��
2019/06/17,00:30,0.736,1.043,0.714,1.304,0.937,0.432,0.742,0.706,��,6.9,��
2019/06/17,00:40,0.735,1.044,0.715,1.304,0.937,0.430,0.742,0.706,���k��,8.9,��
2019/06/17,00:50,0.734,1.043,0.716,1.305,0.938,0.430,0.743,0.705,���k��,9.2,��
2019/06/17,01:00,0.736,1.043,0.714,1.306,0.937,0.430,0.742,0.706,���k��,6.2,��
2019/06/17,01:10,0.735,1.043,0.714,1.305,0.934,0.432,0.741,0.707,���k��,7.6,�L
2019/06/17,01:20,0.737,1.044,0.714,1.304,0.936,0.430,0.742,0.707,���k��,9.9,�L
2019/06/17,01:30,0.736,1.043,0.714,1.304,0.936,0.430,0.742,0.707,���k��,9.4,�L
2019/06/17,01:40,0.736,1.045,0.715,1.305,0.934,0.430,0.741,0.705,���k��,7.9,�L
2019/06/17,01:50,0.733,1.045,0.715,1.306,0.936,0.429,0.740,0.706,���k��,8.0,�L
2019/06/17,02:00,0.734,1.044,0.715,1.304,0.937,0.430,0.741,0.705,���k��,7.3,�L
2019/06/17,02:10,0.735,1.041,0.714,1.307,0.937,0.429,0.740,0.705,���k��,7.6,��
2019/06/17,02:20,0.735,1.042,0.715,1.304,0.937,0.429,0.740,0.704,���k��,5.7,��
2019/06/17,02:30,0.733,1.044,0.715,1.308,0.936,0.430,0.742,0.704,�k��,3.4,��
2019/06/17,02:40,0.734,1.044,0.714,1.308,0.939,0.429,0.741,0.702,�k��,2.0,��
2019/06/17,02:50,0.735,1.042,0.715,1.308,0.940,0.430,0.740,0.705,�k,2.8,��
2019/06/17,03:00,0.737,1.042,0.716,1.307,0.938,0.430,0.741,0.704,�k��,1.4,��
2019/06/17,03:10,0.735,1.044,0.717,1.306,0.940,0.431,0.742,0.706,��,1.7,��
2019/06/17,03:20,0.735,1.043,0.714,1.305,0.940,0.431,0.741,0.705,���쐼,2.0,��
2019/06/17,03:30,0.735,1.043,0.717,1.303,0.939,0.430,0.740,0.706,���쐼,2.0,��
2019/06/17,03:40,0.734,1.043,0.715,1.307,0.938,0.430,0.744,0.707,���쐼,3.5,��
2019/06/17,03:50,0.736,1.044,0.714,1.304,0.938,0.429,0.743,0.706,��,3.9,��
2019/06/17,04:00,0.735,1.040,0.714,1.304,0.939,0.430,0.742,0.706,��,3.3,��
2019/06/17,04:10,0.735,1.041,0.715,1.306,0.940,0.430,0.742,0.707,��,2.0,��
2019/06/17,04:20,0.735,1.042,0.714,1.306,0.941,0.431,0.742,0.705,��,1.5,��
2019/06/17,04:30,0.733,1.043,0.715,1.307,0.940,0.428,0.744,0.706,��,2.3,��
2019/06/17,04:40,0.734,1.043,0.716,1.305,0.939,0.429,0.742,0.704,���k��,3.6,��
2019/06/17,04:50,0.734,1.042,0.715,1.305,0.941,0.430,0.743,0.706,��,2.3,��
2019/06/17,05:00,0.732,1.043,0.715,1.303,0.939,0.429,0.741,0.708,��,2.3,��
2019/06/17,05:10,0.734,1.042,0.713,1.307,0.943,0.430,0.742,0.705,��,3.7,��
2019/06/17,05:20,0.733,1.043,0.715,1.306,0.940,0.429,0.742,0.706,��,4.0,��
2019/06/17,05:30,0.734,1.044,0.714,1.307,0.938,0.430,0.743,0.704,��,4.5,��
2019/06/17,05:40,0.734,1.044,0.715,1.303,0.941,0.429,0.745,0.706,��,4.1,��
2019/06/17,05:50,0.732,1.045,0.714,1.305,0.941,0.429,0.742,0.705,��,4.6,��
2019/06/17,06:00,0.734,1.044,0.716,1.307,0.940,0.430,0.744,0.705,���쐼,4.0,��
2019/06/17,06:10,0.734,1.044,0.714,1.306,0.942,0.429,0.744,0.706,��,3.0,��
2019/06/17,06:20,0.733,1.044,0.713,1.306,0.939,0.428,0.744,0.705,��,1.5,��
2019/06/17,06:30,0.734,1.041,0.714,1.307,0.942,0.429,0.742,0.705,�k,0.9,��
2019/06/17,06:40,0.737,1.042,0.716,1.305,0.940,0.428,0.743,0.706,-,CALM,��
2019/06/17,06:50,0.735,1.039,0.714,1.307,0.942,0.429,0.743,0.706,�k��,1.5,��
2019/06/17,07:00,0.733,1.040,0.715,1.308,0.941,0.428,0.741,0.706,�k�k��,1.1,��
2019/06/17,07:10,0.736,1.041,0.717,1.307,0.942,0.427,0.743,0.705,�k�k��,1.9,��
2019/06/17,07:20,0.736,1.039,0.714,1.306,0.941,0.428,0.743,0.706,�k,0.6,��
2019/06/17,07:30,0.734,1.041,0.715,1.306,0.943,0.430,0.741,0.704,��쓌,1.1,��
2019/06/17,07:40,0.734,1.042,0.717,1.305,0.941,0.429,0.740,0.705,�쓌,2.8,��
2019/06/17,07:50,0.733,1.042,0.715,1.304,0.940,0.427,0.741,0.704,��,1.9,��
2019/06/17,08:00,0.736,1.041,0.714,1.306,0.941,0.428,0.740,0.705,��,2.3,��
2019/06/17,08:10,0.735,1.043,0.716,1.304,0.942,0.428,0.743,0.704,���쐼,3.7,��
2019/06/17,08:20,0.734,1.040,0.715,1.305,0.939,0.426,0.742,0.703,���쐼,4.8,��
2019/06/17,08:30,0.735,1.038,0.716,1.305,0.944,0.427,0.741,0.703,���쐼,3.8,��
2019/06/17,08:40,0.733,1.041,0.718,1.310,0.942,0.427,0.740,0.705,��,3.2,��
2019/06/17,08:50,0.734,1.039,0.715,1.308,0.942,0.426,0.742,0.704,��,4.1,��
2019/06/17,09:00,0.734,1.043,0.715,1.307,0.937,0.427,0.743,0.702,��,4.9,��
2019/06/17,09:10,0.737,1.042,0.714,1.307,0.941,0.427,0.743,0.705,��,3.6,��
2019/06/17,09:20,0.736,1.042,0.714,1.305,0.941,0.428,0.743,0.704,���k��,5.1,��
2019/06/17,09:30,0.734,1.039,0.715,1.307,0.941,0.428,0.742,0.702,���k��,7.1,��
2019/06/17,09:40,0.734,1.044,0.713,1.306,0.941,0.429,0.744,0.702,�k��,4.7,��
2019/06/17,09:50,0.734,1.042,0.713,1.306,0.943,0.429,0.743,0.704,���k��,4.0,��
2019/06/17,10:00,0.732,1.044,0.715,1.307,0.944,0.429,0.745,0.703,���k��,4.1,��
2019/06/17,10:10,0.734,1.042,0.716,1.310,0.942,0.430,0.743,0.706,���k��,7.1,��
2019/06/17,10:20,0.736,1.044,0.717,1.309,0.942,0.429,0.743,0.704,���k��,6.0,��
2019/06/17,10:30,0.735,1.044,0.715,1.308,0.944,0.428,0.742,0.702,��,6.4,��
2019/06/17,10:40,0.734,1.043,0.714,1.308,0.944,0.428,0.743,0.704,���k��,7.0,��
2019/06/17,10:50,0.737,1.045,0.715,1.310,0.946,0.428,0.743,0.703,���k��,6.3,��
2019/06/17,11:00,0.736,1.046,0.713,1.309,0.945,0.429,0.744,0.705,���k��,7.1,��
2019/06/17,11:10,0.735,1.047,0.716,1.310,0.946,0.428,0.743,0.705,���k��,5.8,��
2019/06/17,11:20,0.735,1.047,0.719,1.310,0.945,0.428,0.742,0.704,��,6.2,��
2019/06/17,11:30,0.735,1.049,0.716,1.308,0.945,0.428,0.743,0.704,���k��,6.5,��
2019/06/17,11:40,0.735,1.049,0.717,1.309,0.947,0.428,0.742,0.704,���k��,7.9,��
2019/06/17,11:50,0.737,1.050,0.720,1.309,0.947,0.428,0.744,0.705,���k��,8.4,��
2019/06/17,12:00,0.736,1.051,0.718,1.309,0.948,0.429,0.744,0.707,��,7.6,��
2019/06/17,12:10,0.737,1.051,0.718,1.312,0.948,0.430,0.744,0.705,���k��,6.9,��
2019/06/17,12:20,0.737,1.050,0.719,1.313,0.946,0.432,0.744,0.703,���k��,7.0,��
2019/06/17,12:30,0.739,1.050,0.720,1.311,0.949,0.430,0.745,0.703,��,5.9,��
2019/06/17,12:40,0.738,1.054,0.718,1.315,0.947,0.429,0.743,0.705,��,8.2,��
2019/06/17,12:50,0.738,1.051,0.718,1.312,0.949,0.430,0.744,0.706,��,7.2,��
2019/06/17,13:00,0.737,1.053,0.719,1.312,0.949,0.431,0.746,0.705,���k��,9.0,��
2019/06/17,13:10,0.738,1.053,0.719,1.315,0.949,0.429,0.743,0.705,��,6.8,��
2019/06/17,13:20,0.741,1.051,0.719,1.313,0.951,0.429,0.745,0.704,���k��,4.9,��
2019/06/17,13:30,0.738,1.052,0.719,1.314,0.950,0.429,0.745,0.706,��,5.5,��
2019/06/17,13:40,0.739,1.052,0.720,1.314,0.949,0.429,0.746,0.707,��,4.5,��
2019/06/17,13:50,0.740,1.054,0.722,1.314,0.952,0.431,0.746,0.705,��,6.6,��
2019/06/17,14:00,0.742,1.053,0.721,1.315,0.952,0.431,0.744,0.706,��,5.7,��
2019/06/17,14:10,0.740,1.054,0.721,1.316,0.952,0.429,0.746,0.706,���k��,5.4,��
2019/06/17,14:20,0.740,1.054,0.720,1.313,0.953,0.431,0.746,0.707,���k��,3.8,��
2019/06/17,14:30,0.741,1.052,0.720,1.315,0.953,0.430,0.744,0.706,���k��,4.4,��
2019/06/17,14:40,0.741,1.054,0.721,1.315,0.953,0.431,0.744,0.707,��,6.2,��
2019/06/17,14:50,0.741,1.055,0.722,1.317,0.953,0.430,0.745,0.708,���k��,5.6,��
2019/06/17,15:00,0.743,1.056,0.722,1.316,0.951,0.431,0.745,0.708,���k��,7.4,��
2019/06/17,15:10,0.741,1.056,0.720,1.314,0.954,0.432,0.745,0.707,���k��,6.6,��
2019/06/17,15:20,0.739,1.057,0.720,1.318,0.951,0.431,0.746,0.707,���k��,7.8,��
2019/06/17,15:30,0.740,1.061,0.722,1.318,0.953,0.431,0.746,0.704,���k��,5.3,��
2019/06/17,15:40,0.741,1.060,0.722,1.316,0.954,0.432,0.745,0.707,���k��,4.5,��
2019/06/17,15:50,0.741,1.057,0.722,1.316,0.951,0.431,0.745,0.705,�k�k��,3.3,��
2019/06/17,16:00,0.740,1.058,0.721,1.317,0.954,0.431,0.745,0.707,���k��,4.1,��
2019/06/17,16:10,0.741,1.059,0.722,1.316,0.954,0.430,0.746,0.707,�k��,4.6,��
2019/06/17,16:20,0.738,1.060,0.720,1.316,0.953,0.431,0.744,0.707,�k��,4.3,��
2019/06/17,16:30,0.739,1.060,0.723,1.315,0.954,0.431,0.743,0.705,�k��,4.5,��
2019/06/17,16:40,0.738,1.060,0.723,1.316,0.954,0.430,0.744,0.706,�k��,2.8,��
2019/06/17,16:50,0.738,1.061,0.722,1.320,0.953,0.430,0.746,0.706,�k�k��,3.1,��
2019/06/17,17:00,0.737,1.063,0.722,1.318,0.955,0.431,0.745,0.706,�k��,3.4,��
2019/06/17,17:10,0.739,1.065,0.724,1.321,0.955,0.430,0.747,0.705,���k��,2.5,��
2019/06/17,17:20,0.744,1.062,0.723,1.319,0.954,0.432,0.746,0.706,��,4.6,��
2019/06/17,17:30,0.743,1.064,0.725,1.320,0.956,0.432,0.743,0.706,��,6.4,��
2019/06/17,17:40,0.747,1.064,0.724,1.323,0.958,0.433,0.744,0.706,���k��,5.0,��
2019/06/17,17:50,0.746,1.063,0.725,1.322,0.955,0.431,0.746,0.706,���k��,4.7,��
2019/06/17,18:00,0.746,1.064,0.723,1.322,0.956,0.430,0.744,0.707,��,4.2,��
2019/06/17,18:10,0.745,1.064,0.722,1.321,0.956,0.430,0.743,0.708,��,4.7,��
2019/06/17,18:20,0.746,1.063,0.724,1.321,0.956,0.432,0.744,0.709,��,5.1,��
2019/06/17,18:30,0.744,1.064,0.724,1.322,0.957,0.429,0.744,0.708,���k��,3.9,��
2019/06/17,18:40,0.744,1.064,0.723,1.321,0.957,0.429,0.745,0.708,��,5.4,��
2019/06/17,18:50,0.745,1.064,0.722,1.320,0.957,0.433,0.745,0.710,��,6.1,��
2019/06/17,19:00,0.746,1.064,0.723,1.320,0.957,0.430,0.742,0.709,���k��,6.9,��
2019/06/17,19:10,0.743,1.062,0.722,1.322,0.958,0.432,0.746,0.710,���k��,5.3,��
2019/06/17,19:20,0.744,1.062,0.723,1.322,0.956,0.431,0.746,0.709,���k��,4.8,��
2019/06/17,19:30,0.744,1.064,0.725,1.323,0.957,0.432,0.745,0.709,���k��,3.8,��
2019/06/17,19:40,0.743,1.064,0.724,1.320,0.957,0.431,0.745,0.711,�k�k��,2.2,��
2019/06/17,19:50,0.743,1.065,0.724,1.321,0.956,0.432,0.746,0.710,�k�k��,2.8,��
2019/06/17,20:00,0.745,1.063,0.724,1.322,0.957,0.433,0.745,0.708,�k�k��,3.1,��
2019/06/17,20:10,0.743,1.064,0.722,1.320,0.955,0.432,0.745,0.709,�k�k��,2.9,��
2019/06/17,20:20,0.744,1.063,0.726,1.320,0.956,0.431,0.745,0.708,�k��,2.5,��
2019/06/17,20:30,0.743,1.064,0.726,1.323,0.955,0.432,0.747,0.709,��,2.0,��
2019/06/17,20:40,0.743,1.062,0.722,1.320,0.958,0.433,0.745,0.708,��,3.0,��
2019/06/17,20:50,0.744,1.064,0.723,1.325,0.957,0.431,0.744,0.708,��,4.2,��
2019/06/17,21:00,0.741,1.065,0.720,1.324,0.956,0.432,0.746,0.708,���k��,4.6,��
2019/06/17,21:10,0.743,1.062,0.718,1.325,0.957,0.432,0.748,0.708,���k��,5.4,��
2019/06/17,21:20,0.743,1.065,0.717,1.324,0.957,0.432,0.746,0.710,���k��,6.4,��
2019/06/17,21:30,0.742,1.061,0.717,1.324,0.956,0.431,0.745,0.708,���k��,5.1,��
2019/06/17,21:40,0.741,1.067,0.718,1.326,0.958,0.431,0.748,0.708,���k��,4.4,��
2019/06/17,21:50,0.743,1.063,0.719,1.323,0.956,0.432,0.744,0.708,���k��,2.3,��
2019/06/17,22:00,0.743,1.062,0.719,1.322,0.956,0.430,0.745,0.708,���k��,2.5,��
2019/06/17,22:10,0.742,1.062,0.718,1.323,0.956,0.430,0.745,0.708,��,2.0,��
2019/06/17,22:20,0.741,1.064,0.718,1.324,0.958,0.431,0.745,0.708,�쐼,1.5,��
2019/06/17,22:30,0.741,1.063,0.717,1.323,0.956,0.432,0.745,0.708,�쐼,2.3,��
2019/06/17,22:40,0.743,1.061,0.717,1.323,0.956,0.432,0.745,0.708,��,3.7,��
2019/06/17,22:50,0.743,1.062,0.721,1.323,0.957,0.432,0.744,0.708,���k��,5.4,��
2019/06/17,23:00,0.742,1.062,0.720,1.323,0.958,0.430,0.745,0.708,��,4.4,��
2019/06/17,23:10,0.741,1.063,0.717,1.323,0.956,0.431,0.744,0.708,��,3.1,��
2019/06/17,23:20,0.742,1.062,0.719,1.324,0.957,0.431,0.745,0.708,-,CALM,��
2019/06/17,23:30,0.743,1.062,0.718,1.327,0.956,0.430,0.746,0.708,�k�k��,1.1,��
2019/06/17,23:40,0.743,1.060,0.716,1.322,0.955,0.430,0.746,0.707,��,0.6,��
2019/06/17,23:50,0.742,1.063,0.718,1.322,0.956,0.432,0.747,0.708,�쐼,0.9,��
